Location: Alvis C Story Elementary School
(33.0968°N, 96.6364°W)
Time: 06:58:59
(UTC+00:00)

Lacrosse 5 rocket - Visible Passes

Search period start: 28 June 2022 00:00
Search period end: 08 July 2022 00:00
Orbit: 457 x 629 km, 57.0° (Epoch: 27 June)

Date Brightness Start Highest point End Pass type
(mag) Time Alt. Az. Time Alt. Az. Time Alt. Az.
28 Jun 3.9 03:43:39 10° NNE 03:44:54 11° NE 03:46:10 10° NE visible
28 Jun 3.6 05:20:18 10° NW 05:21:45 22° NW 05:21:45 22° NW visible
29 Jun 3.6 03:35:22 10° N 03:37:31 14° NE 03:38:46 13° ENE visible
29 Jun 3.6 05:12:50 10° NW 05:14:16 21° NW 05:14:16 21° NW visible
30 Jun 3.3 03:27:24 10° N 03:30:07 18° NE 03:31:20 16° ENE visible
30 Jun 3.6 05:05:25 10° NW 05:06:51 21° WNW 05:06:51 21° WNW visible
01 Jul 3.0 03:19:33 10° N 03:22:41 22° NE 03:23:58 19° ENE visible
01 Jul 3.6 04:58:04 10° WNW 04:59:29 19° WNW 04:59:29 19° WNW visible
02 Jul 2.6 03:11:47 10° NNW 03:15:13 28° NE 03:16:38 23° E visible
02 Jul 3.7 04:50:49 10° WNW 04:52:09 17° W 04:52:09 17° W visible
03 Jul 2.2 03:04:04 10° NNW 03:07:44 37° NE 03:09:22 26° E visible
03 Jul 3.8 04:43:43 10° WNW 04:44:53 15° W 04:44:53 15° W visible
04 Jul 1.7 02:56:24 10° NNW 03:00:13 50° NE 03:02:10 26° ESE visible
04 Jul 4.0 04:36:55 10° W 04:37:41 12° W 04:37:41 12° W visible
05 Jul 1.3 02:48:47 10° NNW 02:52:40 69° NE 02:55:01 24° SE visible
06 Jul 1.2 02:41:12 10° NW 02:45:07 86° SW 02:47:56 19° SE visible
07 Jul 1.6 02:33:41 10° NW 02:37:32 62° SW 02:40:55 14° SSE visible
